User: anonymous   Login
Location: Eastchurch
(51.4000°N, 0.8667°E)
Time: 13:35:40
(UTC+00:00)
Language:

CZ-2D R/B - Orbit

View from above orbital plane
View from above orbital plane
View from above satellite
View from above satellite

Ground track
Ground track

The orbit is defined by the following mean orbital elements,

1 36597U          26067.06099927 +.00000000 +00000-0 +28097-3 0 00005
2 36597  97.9911  93.2454 0047517 258.4509 101.1377 15.02321718    02
Epoch (UTC): 08 March 2026 01:27:50
Eccentricity: 0.0047517
inclination: 97.9911°
perigee height: 527 km
apogee height: 593 km
right ascension of ascending node: 93.2454°
argument of perigee: 258.4509°
revolutions per day: 15.02321718
mean anomaly at epoch: 101.1377°

The dashed part of the orbit path shows where the satellite is in the earth's shadow,  

DLR